Time,TemperatureF,DewpointF,PressureIn,WindDirection,WindDirectionDegrees,WindSpeedMPH,WindSpeedGustMPH,Humidity,HourlyPrecipIn,Conditions,Clouds,dailyrainin,SolarRadiationWatts/m^2,SoftwareType,DateUTC
2013-09-01 00:03:00,-999.0,-99.9,-100.00,NE,52,1.0,-999.0,-999,-99.99,,,-99.99,0.000000,,2013-09-01 04:03:00,
2013-09-01 00:14:00,75.0,75.0,-100.00,NE,52,1.0,-999.0,98,0.00,,,-99.99,0.000000,,2013-09-01 04:14:00,
2013-09-01 00:25:00,76.0,75.0,-100.00,SE,130,2.0,-999.0,98,0.00,,,-99.99,0.000000,,2013-09-01 04:25:00,
2013-09-01 00:43:00,76.0,75.0,-100.00,SW,216,2.0,-999.0,98,0.00,,,-99.99,0.000000,,2013-09-01 04:43:00,
2013-09-01 00:54:00,75.0,75.0,-100.00,SW,234,1.0,-999.0,98,0.00,,,-99.99,0.000000,,2013-09-01 04:54:00,
2013-09-01 01:13:00,75.0,75.0,-100.00,SSW,194,1.0,-999.0,99,0.00,,,-99.99,0.000000,,2013-09-01 05:13:00,
2013-09-01 01:23:00,76.0,76.0,-100.00,South,175,4.0,-999.0,99,0.00,,,-99.99,0.000000,,2013-09-01 05:23:00,
2013-09-01 01:43:00,77.0,76.0,-100.00,South,176,4.0,-999.0,98,0.00,,,-99.99,0.000000,,2013-09-01 05:43:00,
2013-09-01 01:52:00,77.0,76.0,-100.00,South,182,4.0,-999.0,98,0.00,,,-99.99,0.000000,,2013-09-01 05:52:00,
2013-09-01 02:13:00,77.0,76.0,-100.00,South,186,3.0,-999.0,98,0.00,,,-99.99,0.000000,,2013-09-01 06:13:00,
2013-09-01 02:22:00,76.0,76.0,-100.00,SSW,199,2.0,-999.0,98,0.00,,,-99.99,0.000000,,2013-09-01 06:22:00,
2013-09-01 02:42:00,76.0,76.0,-100.00,SSW,211,1.0,-999.0,98,0.00,,,-99.99,0.000000,,2013-09-01 06:42:00,
2013-09-01 02:52:00,76.0,76.0,-100.00,SSW,194,3.0,-999.0,99,0.00,,,-99.99,0.000000,,2013-09-01 06:52:00,
2013-09-01 03:13:00,76.0,76.0,-100.00,South,187,3.0,-999.0,99,0.00,,,-99.99,0.000000,,2013-09-01 07:13:00,
2013-09-01 03:22:00,76.0,76.0,-100.00,South,188,3.0,-999.0,99,0.00,,,-99.99,0.000000,,2013-09-01 07:22:00,
2013-09-01 03:42:00,76.0,76.0,-100.00,South,191,2.0,-999.0,99,0.00,,,-99.99,0.000000,,2013-09-01 07:42:00,
2013-09-01 03:52:00,76.0,76.0,-100.00,SSW,199,3.0,-999.0,99,0.00,,,-99.99,0.000000,,2013-09-01 07:52:00,
2013-09-01 04:11:00,76.0,76.0,-100.00,SW,229,2.0,-999.0,99,0.00,,,-99.99,0.000000,,2013-09-01 08:11:00,
2013-09-01 04:22:00,76.0,75.0,-100.00,West,262,2.0,-999.0,99,0.00,,,-99.99,0.000000,,2013-09-01 08:22:00,
2013-09-01 04:43:00,75.0,75.0,-100.00,SW,229,1.0,-999.0,99,0.00,,,-99.99,0.000000,,2013-09-01 08:43:00,
2013-09-01 04:52:00,75.0,75.0,-100.00,SSW,194,2.0,-999.0,99,0.00,,,-99.99,0.000000,,2013-09-01 08:52:00,
2013-09-01 05:11:00,75.0,75.0,-100.00,SSE,164,2.0,-999.0,99,0.00,,,-99.99,0.000000,,2013-09-01 09:11:00,
2013-09-01 05:22:00,75.0,75.0,-100.00,SSE,167,2.0,-999.0,99,0.00,,,-99.99,0.000000,,2013-09-01 09:22:00,
2013-09-01 05:43:00,75.0,75.0,-100.00,SSW,207,2.0,-999.0,99,0.00,,,-99.99,0.000000,,2013-09-01 09:43:00,
2013-09-01 05:53:00,75.0,75.0,-100.00,West,273,1.0,-999.0,99,0.00,,,-99.99,0.000000,,2013-09-01 09:53:00,
2013-09-01 06:12:00,75.0,75.0,-100.00,NW,315,1.0,-999.0,99,0.00,,,-99.99,0.000000,,2013-09-01 10:12:00,
2013-09-01 06:23:00,75.0,75.0,-100.00,South,170,1.0,-999.0,99,0.00,,,-99.99,0.000000,,2013-09-01 10:23:00,
2013-09-01 06:42:00,75.0,75.0,-100.00,SSE,163,1.0,-999.0,99,0.00,,,-99.99,0.000000,,2013-09-01 10:42:00,
2013-09-01 06:53:00,75.0,75.0,-100.00,SSE,156,2.0,-999.0,99,0.00,,,-99.99,0.000000,,2013-09-01 10:53:00,
2013-09-01 07:12:00,75.0,75.0,-100.00,SSE,166,2.0,-999.0,99,0.00,,,-99.99,0.000000,,2013-09-01 11:12:00,
2013-09-01 07:22:00,75.0,75.0,-100.00,SSW,206,2.0,-999.0,99,0.00,,,-99.99,0.100000,,2013-09-01 11:22:00,
2013-09-01 07:42:00,75.0,75.0,-100.00,South,177,2.0,-999.0,100,0.00,,,-99.99,1.500000,,2013-09-01 11:42:00,
2013-09-01 07:52:00,75.0,75.0,-100.00,South,181,2.0,-999.0,100,0.00,,,-99.99,8.000000,,2013-09-01 11:52:00,
2013-09-01 08:12:00,75.0,75.0,-100.00,South,171,2.0,-999.0,100,0.00,,,-99.99,22.299999,,2013-09-01 12:12:00,
2013-09-01 08:22:00,75.0,75.0,-100.00,SSE,164,4.0,-999.0,99,0.00,,,-99.99,55.099998,,2013-09-01 12:22:00,
2013-09-01 08:42:00,76.0,76.0,-100.00,SSE,154,2.0,-999.0,99,0.00,,,-99.99,93.900002,,2013-09-01 12:42:00,
2013-09-01 08:52:00,77.0,76.0,-100.00,South,172,4.0,-999.0,99,0.00,,,-99.99,127.199997,,2013-09-01 12:52:00,
2013-09-01 09:11:00,77.0,77.0,-100.00,South,187,4.0,-999.0,98,0.00,,,-99.99,190.399994,,2013-09-01 13:11:00,
2013-09-01 09:21:00,79.0,77.0,-100.00,SSW,205,4.0,-999.0,96,0.00,,,-99.99,223.300003,,2013-09-01 13:21:00,
2013-09-01 09:42:00,79.0,77.0,-100.00,SW,226,3.0,-999.0,94,0.00,,,-99.99,247.100006,,2013-09-01 13:42:00,
2013-09-01 09:52:00,80.0,78.0,-100.00,SW,236,3.0,-999.0,92,0.00,,,-99.99,315.200012,,2013-09-01 13:52:00,
2013-09-01 10:11:00,81.0,78.0,-100.00,WSW,252,4.0,-999.0,91,0.00,,,-99.99,362.500000,,2013-09-01 14:11:00,
2013-09-01 10:22:00,82.0,79.0,-100.00,SW,227,4.0,-999.0,89,0.00,,,-99.99,400.200012,,2013-09-01 14:22:00,
2013-09-01 10:42:00,83.0,79.0,-100.00,SW,229,5.0,-999.0,87,0.00,,,-99.99,476.600006,,2013-09-01 14:42:00,
2013-09-01 10:52:00,83.0,78.0,-100.00,SW,227,6.0,-999.0,85,0.00,,,-99.99,440.000000,,2013-09-01 14:52:00,
2013-09-01 11:11:00,84.0,79.0,-100.00,WSW,250,5.0,-999.0,84,0.00,,,-99.99,627.500000,,2013-09-01 15:11:00,
2013-09-01 11:23:00,84.0,78.0,-100.00,SSW,206,5.0,-999.0,83,0.00,,,-99.99,283.700012,,2013-09-01 15:23:00,
2013-09-01 11:45:00,83.0,78.0,-100.00,South,182,4.0,-999.0,85,0.00,,,-99.99,553.000000,,2013-09-01 15:45:00,
2013-09-01 11:55:00,85.0,78.0,-100.00,South,183,7.0,-999.0,81,0.00,,,-99.99,687.500000,,2013-09-01 15:55:00,
2013-09-01 12:14:00,85.0,78.0,-100.00,SSW,192,6.0,-999.0,79,0.00,,,-99.99,741.000000,,2013-09-01 16:14:00,
2013-09-01 12:24:00,86.0,78.0,-100.00,South,182,7.0,-999.0,78,0.00,,,-99.99,785.000000,,2013-09-01 16:24:00,
2013-09-01 12:43:00,86.0,77.0,-100.00,South,181,8.0,-999.0,76,0.00,,,-99.99,704.000000,,2013-09-01 16:43:00,
2013-09-01 12:53:00,87.0,77.0,-100.00,SSW,211,8.0,-999.0,72,0.00,,,-99.99,781.000000,,2013-09-01 16:53:00,
2013-09-01 13:12:00,87.0,76.0,-100.00,South,170,8.0,-999.0,70,0.00,,,-99.99,839.000000,,2013-09-01 17:12:00,
2013-09-01 13:23:00,88.0,77.0,-100.00,South,189,7.0,-999.0,70,0.00,,,-99.99,748.000000,,2013-09-01 17:23:00,
2013-09-01 13:42:00,88.0,77.0,-100.00,SW,216,4.0,-999.0,71,0.00,,,-99.99,532.299988,,2013-09-01 17:42:00,
2013-09-01 13:52:00,85.0,78.0,-100.00,NW,313,6.0,-999.0,77,0.00,,,-99.99,330.600006,,2013-09-01 17:52:00,
2013-09-01 16:52:00,80.0,76.0,-100.00,WSW,239,4.0,-999.0,90,0.00,,,-99.99,303.700012,,2013-09-01 20:52:00,
2013-09-01 17:11:00,81.0,78.0,-100.00,SW,221,5.0,-999.0,87,0.00,,,-99.99,501.799988,,2013-09-01 21:11:00,
2013-09-01 17:15:00,85.0,79.0,-100.00,SSW,202,5.0,-999.0,81,0.00,,,-99.99,574.099976,,2013-09-01 21:15:00,
2013-09-01 17:22:00,84.0,79.0,-100.00,SW,233,4.0,-999.0,84,0.00,,,-99.99,548.400024,,2013-09-01 21:22:00,
2013-09-01 17:44:00,85.0,79.0,-100.00,SSW,202,5.0,-999.0,81,0.00,,,-99.99,574.099976,,2013-09-01 21:44:00,
2013-09-01 17:55:00,85.0,79.0,-100.00,SSW,202,5.0,-999.0,81,0.00,,,-99.99,574.099976,,2013-09-01 21:55:00,
2013-09-01 18:04:00,85.0,79.0,-100.00,SSW,202,5.0,-999.0,81,0.00,,,-99.99,574.099976,,2013-09-01 22:04:00,